• en Belgique
  • Liste des pays
  • À 7 jours
  • Température de l'eau
  • Carte satellitaire
  • Carte météo
  • Widgets météo
  • user-avatar
    Se connecter

    Météo par heure à Nivelles

    Ce jour, 23 Février, Vendredi

    Heure Température Précipitation Vent Pression Humidité
    00:00 -4°C° 0 mm 4 m/s 755 mmHg 66%
    01:00 -4°C° 0 mm 4 m/s 755 mmHg 66%
    02:00 -4°C° 0 mm 4 m/s 755 mmHg 66%
    03:00 -5°C° 0 mm 4 m/s 755 mmHg 66%
    04:00 -5°C° 0 mm 4 m/s 755 mmHg 67%
    05:00 -5°C° 0 mm 4 m/s 755 mmHg 67%
    06:00 -5°C° 0 mm 4 m/s 755 mmHg 67%
    07:00 -5°C° 0 mm 5 m/s 755 mmHg 62%
    08:00 -4°C° 0 mm 6 m/s 754 mmHg 57%
    09:00 -3°C° 0 mm 6 m/s 754 mmHg 51%
    10:00 -2°C° 0 mm 6 m/s 754 mmHg 47%
    11:00 -1°C° 0 mm 7 m/s 754 mmHg 43%
    12:00 0°C° 0 mm 7 m/s 754 mmHg 40%
    13:00 0°C° 0 mm 7 m/s 753 mmHg 39%
    14:00 +1°C° 0 mm 6 m/s 753 mmHg 38%
    15:00 +1°C° 0 mm 6 m/s 753 mmHg 38%
    16:00 -1°C° 0 mm 6 m/s 753 mmHg 41%
    17:00 -1°C° 0 mm 5 m/s 753 mmHg 44%
    18:00 -4°C° 0 mm 5 m/s 753 mmHg 47%
    19:00 -4°C° 0 mm 5 m/s 753 mmHg 46%
    20:00 -5°C° 0 mm 5 m/s 753 mmHg 46%
    21:00 -5°C° 0 mm 5 m/s 753 mmHg 46%
    22:00 -5°C° 0 mm 5 m/s 753 mmHg 45%
    23:00 -6°C° 0 mm 5 m/s 754 mmHg 44%

    Demain, 24 Février, Samedi

    Heure Température Précipitation Vent Pression Humidité
    00:00 -5°C° 0 mm 4 m/s 754 mmHg 43%
    01:00 -6°C° 0 mm 5 m/s 754 mmHg 43%
    02:00 -6°C° 0 mm 5 m/s 754 mmHg 42%
    03:00 -6°C° 0 mm 5 m/s 754 mmHg 41%
    04:00 -6°C° 0 mm 5 m/s 754 mmHg 40%
    05:00 -6°C° 0 mm 5 m/s 754 mmHg 39%
    06:00 -6°C° 0 mm 5 m/s 754 mmHg 37%
    07:00 -5°C° 0 mm 6 m/s 754 mmHg 33%
    08:00 -4°C° 0 mm 7 m/s 754 mmHg 29%
    09:00 -3°C° 0 mm 7 m/s 755 mmHg 25%
    10:00 -1°C° 0 mm 7 m/s 755 mmHg 27%
    11:00 0°C° 0 mm 8 m/s 755 mmHg 28%
    12:00 +2°C° 0 mm 8 m/s 755 mmHg 30%
    13:00 +2°C° 0 mm 8 m/s 755 mmHg 33%
    14:00 +3°C° 0 mm 7 m/s 755 mmHg 36%
    15:00 +3°C° 0 mm 7 m/s 755 mmHg 39%
    16:00 0°C° 0 mm 7 m/s 755 mmHg 44%
    17:00 -1°C° 0 mm 7 m/s 755 mmHg 49%
    18:00 -3°C° 0 mm 6 m/s 755 mmHg 53%
    19:00 -3°C° 0 mm 6 m/s 756 mmHg 52%
    20:00 -4°C° 0 mm 6 m/s 756 mmHg 50%
    21:00 -5°C° 0 mm 6 m/s 756 mmHg 48%
    22:00 -5°C° 0 mm 6 m/s 757 mmHg 49%
    23:00 -5°C° 0 mm 6 m/s 757 mmHg 50%

    Après-demain, 25 Février, Dimanche

    Heure Température Précipitation Vent Pression Humidité
    00:00 -5°C° 0 mm 5 m/s 757 mmHg 51%
    01:00 -6°C° 0 mm 5 m/s 757 mmHg 51%
    02:00 -6°C° 0 mm 5 m/s 757 mmHg 50%
    03:00 -6°C° 0 mm 5 m/s 757 mmHg 49%
    04:00 -6°C° 0 mm 6 m/s 758 mmHg 46%
    05:00 -8°C° 0 mm 6 m/s 758 mmHg 43%
    06:00 -8°C° 0 mm 6 m/s 758 mmHg 41%
    07:00 -6°C° 0 mm 6 m/s 759 mmHg 36%
    08:00 -6°C° 0 mm 7 m/s 759 mmHg 31%
    09:00 -6°C° 0 mm 7 m/s 759 mmHg 25%
    10:00 -4°C° 0 mm 7 m/s 759 mmHg 24%
    11:00 -3°C° 0 mm 7 m/s 759 mmHg 23%
    12:00 -2°C° 0 mm 7 m/s 759 mmHg 22%
    13:00 -2°C° 0 mm 7 m/s 759 mmHg 23%
    14:00 -2°C° 0 mm 7 m/s 759 mmHg 25%
    15:00 -2°C° 0 mm 7 m/s 759 mmHg 27%
    16:00 -3°C° 0 mm 6 m/s 759 mmHg 31%
    17:00 -4°C° 0 mm 6 m/s 759 mmHg 35%
    18:00 -5°C° 0 mm 5 m/s 759 mmHg 39%
    19:00 -6°C° 0 mm 5 m/s 760 mmHg 41%
    20:00 -6°C° 0 mm 5 m/s 760 mmHg 43%
    21:00 -6°C° 0 mm 5 m/s 761 mmHg 45%
    22:00 -6°C° 0 mm 5 m/s 761 mmHg 47%
    23:00 -7°C° 0 mm 4 m/s 761 mmHg 49%

    26 Février, Lundi

    Heure Température Précipitation Vent Pression Humidité
    00:00 -7°C° 0 mm 4 m/s 761 mmHg 50%
    01:00 -7°C° 0 mm 4 m/s 761 mmHg 52%
    02:00 -7°C° 0 mm 4 m/s 760 mmHg 55%
    03:00 -7°C° 0 mm 4 m/s 760 mmHg 57%
    04:00 -8°C° 0 mm 4 m/s 760 mmHg 58%
    05:00 -8°C° 0 mm 4 m/s 760 mmHg 60%
    06:00 -8°C° 0 mm 4 m/s 760 mmHg 62%
    07:00 -7°C° 0 mm 5 m/s 760 mmHg 59%
    08:00 -6°C° 0 mm 5 m/s 760 mmHg 56%
    09:00 -6°C° 0 mm 6 m/s 760 mmHg 52%
    10:00 -5°C° 0 mm 6 m/s 760 mmHg 48%
    11:00 -5°C° 0 mm 6 m/s 760 mmHg 44%
    12:00 -4°C° 0 mm 6 m/s 759 mmHg 40%
    13:00 -4°C° 0 mm 6 m/s 759 mmHg 39%
    14:00 -4°C° 0 mm 6 m/s 759 mmHg 38%
    15:00 -4°C° 0 mm 7 m/s 758 mmHg 37%
    16:00 -5°C° 0 mm 6 m/s 758 mmHg 40%
    17:00 -6°C° 0 mm 5 m/s 758 mmHg 43%
    18:00 -7°C° 0 mm 4 m/s 758 mmHg 46%
    19:00 -7°C° 0 mm 4 m/s 758 mmHg 47%
    20:00 -7°C° 0 mm 4 m/s 758 mmHg 48%
    21:00 -7°C° 0 mm 4 m/s 758 mmHg 49%
    22:00 -8°C° 0 mm 4 m/s 758 mmHg 50%
    23:00 -8°C° 0 mm 4 m/s 758 mmHg 52%

    27 Février, Mardi

    Heure Température Précipitation Vent Pression Humidité
    00:00 -8°C° 0 mm 4 m/s 758 mmHg 54%
    01:00 -8°C° 0 mm 4 m/s 758 mmHg 54%
    02:00 -8°C° 0 mm 4 m/s 757 mmHg 55%
    03:00 -8°C° 0 mm 4 m/s 757 mmHg 56%
    04:00 -9°C° 0 mm 4 m/s 757 mmHg 55%
    05:00 -9°C° 0 mm 4 m/s 757 mmHg 55%
    06:00 -9°C° 0 mm 4 m/s 756 mmHg 54%
    07:00 -8°C° 0 mm 4 m/s 756 mmHg 54%
    08:00 -8°C° 0 mm 5 m/s 756 mmHg 53%
    09:00 -7°C° 0 mm 5 m/s 756 mmHg 53%
    10:00 -6°C° 0 mm 5 m/s 756 mmHg 47%
    11:00 -6°C° 0 mm 5 m/s 755 mmHg 41%
    12:00 -5°C° 0 mm 6 m/s 755 mmHg 35%
    13:00 -5°C° 0 mm 6 m/s 754 mmHg 33%
    14:00 -5°C° 0 mm 6 m/s 754 mmHg 31%
    15:00 -4°C° 0 mm 6 m/s 753 mmHg 29%
    16:00 -5°C° 0 mm 5 m/s 753 mmHg 32%
    17:00 -5°C° 0 mm 4 m/s 753 mmHg 35%
    18:00 -6°C° 0 mm 3 m/s 753 mmHg 37%
    19:00 -7°C° 0 mm 3 m/s 753 mmHg 38%
    20:00 -7°C° 0 mm 3 m/s 753 mmHg 38%
    21:00 -7°C° 0 mm 3 m/s 753 mmHg 39%
    22:00 -7°C° 0 mm 3 m/s 753 mmHg 39%
    23:00 -8°C° 0 mm 3 m/s 753 mmHg 40%

    28 Février, Mercredi

    Heure Température Précipitation Vent Pression Humidité
    00:00 -7°C° 0 mm 2 m/s 753 mmHg 40%
    01:00 -7°C° 0 mm 2 m/s 753 mmHg 41%
    02:00 -7°C° 0 mm 2 m/s 752 mmHg 41%
    03:00 -8°C° 0 mm 2 m/s 752 mmHg 41%
    04:00 -8°C° 0 mm 2 m/s 752 mmHg 42%
    05:00 -8°C° 0 mm 2 m/s 752 mmHg 42%
    06:00 -8°C° 0 mm 2 m/s 752 mmHg 42%
    07:00 -9°C° 0 mm 3 m/s 752 mmHg 39%
    08:00 -8°C° 0 mm 3 m/s 752 mmHg 35%
    09:00 -8°C° 0 mm 4 m/s 751 mmHg 31%
    10:00 -7°C° 0 mm 4 m/s 751 mmHg 29%
    11:00 -7°C° 0 mm 4 m/s 751 mmHg 27%
    12:00 -5°C° 0 mm 4 m/s 750 mmHg 25%
    13:00 -6°C° 0 mm 5 m/s 749 mmHg 24%
    14:00 -5°C° 0 mm 5 m/s 749 mmHg 24%
    15:00 -5°C° 0 mm 5 m/s 748 mmHg 24%
    16:00 -6°C° 0 mm 5 m/s 748 mmHg 27%
    17:00 -7°C° 0 mm 4 m/s 747 mmHg 30%
    18:00 -8°C° 0 mm 4 m/s 747 mmHg 32%
    19:00 -8°C° 0 mm 4 m/s 747 mmHg 33%
    20:00 -8°C° 0 mm 5 m/s 746 mmHg 34%
    21:00 -8°C° 0 mm 5 m/s 746 mmHg 35%
    22:00 -8°C° 0 mm 5 m/s 745 mmHg 35%
    23:00 -10°C° 0 mm 6 m/s 745 mmHg 36%
    Voir plus